Regional Weather Roundup
Issued by NWS

Home | Current Version | Previous Version | Text Only | Print | Product List | Glossary On
Versions: 1 2 3 4 5 6 7 8 9 10 11 12 13 14 15 16 17 18 19 20 21 22 23 24 25 26 27 28 29 30 31 32 33 34 35 36 37 38 39 40 41 42 43 44 45 46 47 48 49 50
000
ASUS43 KLMK 250810
RWRKY
KENTUCKY REGIONAL WEATHER ROUNDUP
NATIONAL WEATHER SERVICE LOUISVILLE KY
300 AM EST SAT FEB 25 2017

NOTE "FAIR" INDICATES FEW OR NO CLOUDS BELOW 12,000 FEET
WITH NO SIGNIFICANT WEATHER AND/OR OBSTRUCTIONS TO VISIBILITY.

KYZ001>023-026-027-061>063-070>075-250900-
WESTERN AND SOUTH CENTRAL KENTUCKY

CITY           SKY/WX    TMP DP  RH WIND       PRES   REMARKS
PADUCAH        CLEAR     42  26  53 W14G22    29.84R
HENDERSON      PTCLDY    39  28  65 W12       29.79R WCI  32
OWENSBORO      PTCLDY    44  31  60 W16G24    29.78R
HOPKINSVILLE   MOCLDY    48  30  49 W12       29.80R
BOWLING GREEN  PTCLDY    51  37  58 NW10      29.78R
GLASGOW        CLOUDY    52  41  67 W8        29.75R
$$

KYZ024-025-028>034-038-045-046-053-250900-
NORTH CENTRAL KENTUCKY

CITY           SKY/WX    TMP DP  RH WIND       PRES   REMARKS
LOUISVILLE/SDF PTCLDY    47  28  47 NW15G25   29.73R
LOUISVILLE/LOU PTCLDY    48  30  49 W12       29.73R
FORT KNOX      MOCLDY    45  32  60 W14       29.73R
$$

KYZ035>037-039>044-047>052-055>060-089>105-250900-
NORTHEAST KENTUCKY

CITY           SKY/WX    TMP DP  RH WIND       PRES   REMARKS
LEXINGTON      CLOUDY    51  39  63 NW13      29.68R
COVINGTON      CLOUDY    47  39  74 NW13      29.65S
FRANKFORT      CLOUDY    51  40  65 W7        29.68R
$$

KYZ054-064>069-076>088-106>120-250900-
SOUTHEAST KENTUCKY

CITY           SKY/WX    TMP DP  RH WIND       PRES   REMARKS
JACKSON        LGT RAIN  56  54  93 SW5       29.65S FOG
LONDON         NOT AVBL
SOMERSET       RAIN      46  43  87 W5        29.72R
MIDDLESBORO    TSTM      64  54  70 W17G33    29.67R
MONTICELLO     CLOUDY    49  44  83 NW8       29.73R
$$




USA.gov is the U.S. government's official web portal to all federal, state and local government web resources and services.